Regional Weather Roundup
Issued by NWS

Home | Current Version | Previous Version | Graphics & Text | Print | Product List | Glossary On
Versions: 1 2 3 4 5 6 7 8 9 10 11 12 13 14 15 16 17 18 19 20 21 22 23 24 25 26 27 28 29 30 31 32 33 34 35 36 37 38 39 40 41 42 43 44 45 46 47 48 49 50
197
ASUS44 KJAN 011003
RWRMS

MISSISSIPPI HOURLY WEATHER ROUNDUP
NATIONAL WEATHER SERVICE JACKSON MS
500 AM CDT FRI AUG 01 2014

NOTE: "FAIR: INDICATES FEW OR NO CLOUDS BELOW 12,000 FEET WITH NO
SIGNIFICANT WEATHER AND/OR OBSTRUCTIONS TO VISIBILITY.

MSZ001>002-007>008-010>013-018>021-025>028-034>036-011100-
NORTHWEST MISSISSIPPI

CITY           SKY/WX    TMP DP  RH WIND       PRES   REMARKS
CLARKSDALE     CLOUDY    68  68 100 CALM      30.04R
CLEVELAND      CLOUDY    69  69  98 NE5       30.01S
GREENWOOD      CLOUDY    69  67  93 CALM      30.02R FOG
GREENVILLE     MOCLDY    70  68  93 NE3       30.00F FOG
GRENADA        FAIR      68  64  88 CALM      30.03R
OLIVE BRANCH   MOCLDY    68  68 100 CALM      30.06R
OXFORD         FAIR      68  66  94 CALM      30.05S
TUNICA         PTSUNNY   68  64  88 N6        30.04F
$$

MSZ003>006-009-014>017-022>024-029>033-037>039-011100-
NORTHEAST MISSISSIPPI

CITY           SKY/WX    TMP DP  RH WIND       PRES   REMARKS
BELMONT        FAIR      64  63  96 CALM      30.05R
COLUMBUS AFB   MOCLDY    67  66  97 N2        30.02S
CORINTH        FAIR      66  64  94 CALM      30.04S
GOLDN TRIANGLE MOCLDY    66  63  88 CALM      30.02S
STARKVILLE     LGT RAIN  66  64  94 CALM      30.02S
TUPELO         MOCLDY    69  65  86 NE3       30.03S
$$

MSZ040-058-011100-
CENTRAL MISSISSIPPI

CITY           SKY/WX    TMP DP  RH WIND       PRES   REMARKS
JACKSON INTL   LGT RAIN  72  65  78 CALM      30.01R
JACKSON HAWKNS CLOUDY    73  63  70 NE6       30.01S
MERIDIAN KEY   MOCLDY    64  62  93 CALM      30.01S
MERIDIAN NAS   PTCLDY    64  62  93 NW3       30.01S
RAYMOND        FAIR      70  64  83 N6        30.01R HAZE
VICKSBURG      LGT RAIN  72  67  84 E3        29.99R
$$

MSZ059>079-011100-
SOUTH MISSISSIPPI

CITY           SKY/WX    TMP DP  RH WIND       PRES   REMARKS
BROOKHAVEN     LGT RAIN  70  70 100 CALM      30.02S
COLUMBIA       CLOUDY    70  68  94 CALM      29.98S
HATTIESBURG    CLOUDY    71  69  93 NW3       30.01R
MCCOMB         LGT RAIN  72  66  81 CALM      30.00R
NATCHEZ        CLOUDY    70  66  88 SE6       29.99S
PINE BELT      CLOUDY    70  64  83 CALM      30.01S
$$

MSZ080>082-011100-
COASTAL MISSISSIPPI

CITY           SKY/WX    TMP DP  RH WIND       PRES   REMARKS
BILOXI         CLOUDY    74  67  79 NE6       29.97S
PASCAGOULA     CLOUDY    70  68  93 CALM      29.98R
GULFPORT       CLOUDY    77  66  68 NE3       29.97S
$$



USA.gov is the U.S. government's official web portal to all federal, state and local government web resources and services.